Home > Weather > Prievidza > Past weeks

Flag for Slovakia Weather for the Past 2 Weeks in Prievidza, Slovakia

Now
42 °F

Quite cool.


Feels Like: 42 °F
Forecast: 31 / 65 °F
Wind: 1 mph from Northwest

Location: Prievidza

Current Time: Apr 30, 2016 at 1:39:35 AM

Latest Report: Apr 30, 2016 at 12:00 AM


Visibility: 19 mi

Pressure: 30.14 "Hg

Humidity: 78%

Dew Point: 35 °F

Location of PrievidzaLocation

Historic Weather in Prievidza — Graph

°F

Prievidza Temperature Yesterday

Maximum temperature yesterday: 64 °F (at 5:00 PM)
Minimum temperature yesterday: 31 °F (at 6:00 AM)
Average temperature yesterday: 49 °F

High & Low Weather Summary for the Past Weeks

 TemperatureHumidityPressure
High75 °F (Apr 17, 3:00 PM)93% (Apr 29, 6:00 AM)30.40 "Hg (Apr 29, 6:00 AM)
Low27 °F (Apr 26, 6:00 AM)26% (Apr 22, 8:00 PM)29.57 "Hg (Apr 24, 5:00 AM)
Average51 °F62%29.93 "Hg
* Reported Midnight between Apr 14 and Apr 15 — Midnight between Apr 29 and Apr 30, Prievidza, Weather by CustomWeather, © 2016

Note: Actual official high and low records may vary slightly from our data, if they occured in-between our weather recording intervals... More about our weather records

Advertising

Prievidza Weather History for the Previous 24 Hours

Scroll right to see more
 ConditionsComfort  
Time TempWeatherWind HumidityBarometerVisibility
12:00 AM
Sat, Apr 30
42 °FQuite cool.1 mph78%30.14 "Hg19 mi
11:00 PM
Fri, Apr 29
45 °FCool.N/A71%30.12 "Hg9 mi
10:00 PM48 °FPassing clouds.N/A66%30.11 "Hg6 mi
9:00 PM51 °FPassing clouds.N/A64%30.09 "Hg25 mi
8:00 PM55 °FPassing clouds.N/A50%30.07 "Hg31 mi
7:00 PM58 °FScattered clouds.2 mph47%30.05 "Hg19 mi
6:00 PM64 °FScattered clouds.N/A26%30.03 "Hg25 mi
5:00 PM64 °FScattered clouds.N/A26%30.04 "Hg25 mi
4:00 PM63 °FScattered clouds.N/A33%30.05 "Hg25 mi
3:00 PM62 °FPassing clouds.N/A48%30.06 "Hg25 mi
2:00 PM63 °FPassing clouds.2 mph48%30.07 "Hg25 mi
1:00 PM61 °FPassing clouds.2 mph48%30.09 "Hg31 mi
12:00 PM57 °FPassing clouds.3 mph48%30.11 "Hg22 mi
9:00 AM46 °FPassing clouds.2 mph72%30.16 "Hg19 mi
8:00 AM42 °FPassing clouds.2 mph83%30.17 "Hg19 mi
7:00 AM37 °FChilly.2 mph93%30.18 "Hg14 mi
6:00 AM31 °FFog.1 mph93%30.19 "Hg4 mi
4:00 AM32 °FFog.1 mph92%30.18 "Hg4 mi
3:00 AM33 °FFog.N/A91%30.17 "Hg2 mi
2:00 AM34 °FFog.No wind90%30.16 "Hg4 mi
1:00 AM36 °FFog.1 mph90%30.16 "Hg6 mi
Weather by CustomWeather, © 2016

See weather overviewHow to use our weather pages